Location: Old Broadwell Mill Observatory
(33.8015°N, 85.8137°W)
Time: 12:23:58
(UTC-05:00)

Amateur Radio Satellites - All Passes

Search period start: 24 April 2014 11:53
Search period end: 25 April 2014 11:53
Location: Old Broadwell Mill Observatory, 33.8015°N, 85.8137°W

Satellite Date Start Highest point End Downlink Frequencies (MHz)
Time Altitude Azimuth
FUNcube-1 24 Apr 11:55:52 11:59:42 32° 287° (WNW) 12:03:37 145.950 - 145.970 MHz USB
Oscar 19 24 Apr 12:16:22 12:18:21 12° 63° (ENE) 12:20:19 437.125 CW, 437.150 USB
KITSAT 1 24 Apr 12:17:34 12:25:13 48° 250° (WSW) 12:32:49 435.175 FM
ISS 24 Apr 12:19:40 12:22:41 33° 131° (SE) 12:25:43 145.800 FM
Oscar 16 24 Apr 12:24:21 12:27:28 16° 65° (ENE) 12:30:36 437.025 USB, Beacon 2401.1428
SO-50 24 Apr 13:03:07 13:06:20 20° 110° (ESE) 13:09:33 436.795 FM
Uribyol 2 24 Apr 13:08:32 13:12:30 23° 68° (ENE) 13:16:29 436.500 FM
AO-Echo 24 Apr 13:13:00 13:16:34 19° 68° (ENE) 13:20:04 ?
RS-15 24 Apr 13:23:11 13:31:29 24° 39° (NE) 13:39:51 29.354 - 29.394 USB, Beacon 29.352 USB
AO-27 24 Apr 13:50:18 13:55:23 59° 74° (ENE) 14:00:29 436.795 MHz FM
Oscar 19 24 Apr 13:51:56 13:57:02 69° 258° (WSW) 14:02:12 437.125 CW, 437.150 USB
ISS 24 Apr 13:56:51 13:59:27 21° 326° (NW) 14:02:03 145.800 FM
ITAMSAT 1 24 Apr 13:59:28 14:04:37 72° 75° (ENE) 14:09:47 435.822 SSB
Oscar 16 24 Apr 14:01:23 14:06:21 51° 260° (W) 14:11:22 437.025 USB, Beacon 2401.1428
JAS-1B 24 Apr 14:06:24 14:09:33 13° 63° (ENE) 14:12:31 435.800 - 435.900 CW/SSB
Gurwin Techsat 1B 24 Apr 14:14:12 14:18:42 29° 69° (ENE) 14:23:14 435.225 FM
AO-7 24 Apr 14:39:11 14:44:11 18° 55° (NE) 14:49:11 29.400 - 29.500 MHz
SO-50 24 Apr 14:42:33 14:46:37 34° 304° (NW) 14:50:44 436.795 FM
Uribyol 2 24 Apr 14:47:03 14:51:44 35° 262° (W) 14:56:26 436.500 FM
OPAL 24 Apr 14:49:58 14:54:25 28° 99° (E) 14:58:50 ?
AO-Echo 24 Apr 14:50:02 14:54:59 43° 261° (W) 14:59:51 ?
UOSAT-12 24 Apr 14:56:00 14:58:29 15° 108° (ESE) 15:00:59 437.025 FM, 437.400 FM
TMSAT-1 24 Apr 14:58:05 15:03:13 55° 74° (ENE) 15:08:23 436.925 FM
Uosat F 24 Apr 15:14:10 15:18:19 27° 69° (ENE) 15:22:28 435.120 FM
AO-27 24 Apr 15:32:51 15:35:13 13° 267° (W) 15:37:34 436.795 MHz FM
RS-15 24 Apr 15:34:28 15:45:31 86° 62° (ENE) 15:56:54 29.354 - 29.394 USB, Beacon 29.352 USB
ITAMSAT 1 24 Apr 15:43:49 15:44:32 10° 269° (W) 15:45:15 435.822 SSB
JAS-1B 24 Apr 15:51:29 15:59:35 90° 77° (ENE) 16:06:19 435.800 - 435.900 CW/SSB
Gurwin Techsat 1B 24 Apr 15:54:02 15:58:34 29° 263° (W) 16:03:07 435.225 FM
AO-7 24 Apr 16:27:35 16:35:52 89° 253° (WSW) 16:44:12 29.400 - 29.500 MHz
OPAL 24 Apr 16:28:43 16:33:11 30° 293° (WNW) 16:37:39 ?
UOSAT-12 24 Apr 16:33:48 16:38:10 47° 303° (WNW) 16:42:38 437.025 FM, 437.400 FM
TMSAT-1 24 Apr 16:40:36 16:43:25 15° 267° (W) 16:46:15 436.925 FM
Uosat F 24 Apr 16:52:40 16:56:58 28° 263° (W) 17:01:16 435.120 FM
Hamsat 24 Apr 17:35:26 17:38:58 27° 71° (ENE) 17:42:31 145.90 MHz
Saudisat 1A 24 Apr 17:47:12 17:49:56 16° 49° (NE) 17:52:38 436.775 MHz
JAS-1B 24 Apr 17:47:32 17:50:25 12° 266° (W) 17:53:10 435.800 - 435.900 CW/SSB
RS-15 24 Apr 17:49:26 17:56:28 20° 259° (WSW) 18:03:43 29.354 - 29.394 USB, Beacon 29.352 USB
JAS-2 24 Apr 18:19:53 18:24:49 31° 71° (ENE) 18:29:26 435.800 - 435.900 CW/SSB, 435.910 FM
SO-67 24 Apr 18:25:04 18:26:52 14° 70° (ENE) 18:28:39 435.3500 MHz FM
AO-7 24 Apr 18:25:35 18:29:29 14° 268° (W) 18:33:25 29.400 - 29.500 MHz
ISS 24 Apr 18:52:55 18:53:54 11° 27° (NNE) 18:54:54 145.800 FM
Hamsat 24 Apr 19:11:49 19:14:54 20° 265° (W) 19:18:01 145.90 MHz
STRAND 1 24 Apr 19:15:29 19:20:33 65° 102° (ESE) 19:25:37 ?
Saudisat 1A 24 Apr 19:25:33 19:29:46 47° 245° (WSW) 19:33:56 436.775 MHz
MaSat-1 24 Apr 19:53:15 19:56:08 48° 111° (ESE) 19:58:41 437.345 MHz
SO-67 24 Apr 19:56:48 19:59:44 25° 263° (W) 20:02:42 435.3500 MHz FM
JAS-2 24 Apr 20:05:10 20:09:53 26° 262° (W) 20:14:19 435.800 - 435.900 CW/SSB, 435.910 FM
HO-68 24 Apr 20:27:35 20:34:14 44° 68° (ENE) 20:40:54 435.675 MHz FM
ISS 24 Apr 20:27:44 20:31:05 80° 43° (NE) 20:34:26 145.800 FM
STRAND 1 24 Apr 20:57:02 20:59:09 13° 296° (WNW) 21:01:15 ?
Oscar 11 24 Apr 21:05:32 21:09:03 25° 71° (ENE) 21:12:35 145.825 FM, Beacon 2401.500 USB
HO-68 24 Apr 22:15:55 22:21:58 30° 263° (W) 22:28:05 435.675 MHz FM
Sapphire 24 Apr 22:31:38 22:36:28 35° 109° (ESE) 22:41:20 437.095 MHz 1200 baud AX-25 AFSK
Oscar 11 24 Apr 22:41:48 22:45:09 22° 264° (W) 22:48:31 145.825 FM, Beacon 2401.500 USB
FUNcube-1 24 Apr 22:48:19 22:52:28 63° 259° (W) 22:56:35 145.950 - 145.970 MHz USB
PCSat 24 Apr 23:15:16 23:20:40 84° 295° (WNW) 23:26:06 145.825 MHz
SO-50 24 Apr 23:17:14 23:21:54 71° 60° (ENE) 23:26:38 436.795 FM
Sapphire 25 Apr 00:15:19 00:19:53 27° 304° (NW) 00:24:28 437.095 MHz 1200 baud AX-25 AFSK
KITSAT 1 25 Apr 00:46:14 00:53:33 39° 108° (ESE) 01:00:53 435.175 FM
PCSat 25 Apr 01:03:22 01:04:53 11° 313° (NW) 01:06:23 145.825 MHz
UOSAT-12 25 Apr 01:06:57 01:11:32 49° 58° (ENE) 01:16:03 437.025 FM, 437.400 FM
Uribyol 2 25 Apr 01:27:46 01:28:29 10° 91° (E) 01:29:11 436.500 FM
OPAL 25 Apr 02:01:12 02:05:39 32° 68° (ENE) 02:10:09 ?
Oscar 19 25 Apr 02:07:34 02:12:42 59° 101° (E) 02:17:48 437.125 CW, 437.150 USB
AO-27 25 Apr 02:07:47 02:12:16 29° 97° (E) 02:16:43 436.795 MHz FM
ITAMSAT 1 25 Apr 02:16:41 02:21:24 35° 98° (E) 02:26:06 435.822 SSB
Oscar 16 25 Apr 02:16:53 02:22:06 80° 103° (ESE) 02:27:17 437.025 USB, Beacon 2401.1428
Gurwin Techsat 1B 25 Apr 02:35:18 02:38:26 16° 93° (E) 02:41:32 435.225 FM
KITSAT 1 25 Apr 02:41:14 02:48:48 42° 305° (NW) 02:56:25 435.175 FM
UOSAT-12 25 Apr 02:48:38 02:51:13 15° 252° (WSW) 02:53:48 437.025 FM, 437.400 FM
AO-Echo 25 Apr 03:01:12 03:05:56 85° 103° (ESE) 03:10:37 ?
Uribyol 2 25 Apr 03:03:12 03:08:22 72° 285° (WNW) 03:13:32 436.500 FM
TMSAT-1 25 Apr 03:18:18 03:22:57 30° 97° (E) 03:27:33 436.925 FM
Uosat F 25 Apr 03:28:30 03:29:19 10° 92° (E) 03:30:08 435.120 FM
OPAL 25 Apr 03:40:27 03:44:30 24° 262° (W) 03:48:37 ?
JAS-1B 25 Apr 03:41:03 03:45:48 26° 98° (E) 03:50:57 435.800 - 435.900 CW/SSB
RS-15 25 Apr 03:46:39 03:52:38 16° 100° (E) 03:58:29 29.354 - 29.394 USB, Beacon 29.352 USB
AO-27 25 Apr 03:47:19 03:51:38 28° 291° (WNW) 03:55:58 436.795 MHz FM
Oscar 19 25 Apr 03:48:46 03:51:29 15° 295° (WNW) 03:54:13 437.125 CW, 437.150 USB
ITAMSAT 1 25 Apr 03:56:39 04:00:39 23° 292° (WNW) 04:04:39 435.822 SSB
Oscar 16 25 Apr 03:59:38 04:00:43 11° 297° (WNW) 04:01:48 437.025 USB, Beacon 2401.1428
Gurwin Techsat 1B 25 Apr 04:13:30 04:18:38 52° 287° (WNW) 04:23:45 435.225 FM
AO-7 25 Apr 04:33:57 04:41:39 40° 100° (E) 04:49:19 29.400 - 29.500 MHz
TMSAT-1 25 Apr 04:58:19 05:02:43 27° 291° (WNW) 05:07:06 436.925 FM
Uosat F 25 Apr 05:03:32 05:08:30 68° 285° (WNW) 05:13:26 435.120 FM
PANSAT 25 Apr 05:08:46 05:11:36 20° 163° (SSE) 05:14:27 not established
JAS-1B 25 Apr 05:31:23 05:36:29 35° 290° (WNW) 05:42:02 435.800 - 435.900 CW/SSB
RS-15 25 Apr 05:51:56 06:03:23 84° 116° (ESE) 06:14:25 29.354 - 29.394 USB, Beacon 29.352 USB
MaSat-1 25 Apr 05:56:52 06:00:10 70° 68° (ENE) 06:04:09 437.345 MHz
AO-40 25 Apr 06:06:25 08:52:15 23° 124° (SE) 10:11:02 Beacon 2401.320
AO-7 25 Apr 06:26:45 06:34:17 40° 296° (WNW) 06:41:51 29.400 - 29.500 MHz
STRAND 1 25 Apr 06:27:33 06:32:35 63° 74° (ENE) 06:37:38 ?
PANSAT 25 Apr 06:47:51 06:51:25 35° 175° (S) 06:54:58 not established
Hamsat 25 Apr 07:00:10 07:04:33 85° 283° (WNW) 07:08:55 145.90 MHz
JAS-2 25 Apr 07:15:38 07:21:05 42° 100° (E) 07:27:10 435.800 - 435.900 CW/SSB, 435.910 FM
Sapphire 25 Apr 07:24:47 07:27:32 14° 49° (NE) 07:30:17 437.095 MHz 1200 baud AX-25 AFSK
SO-67 25 Apr 07:24:53 07:27:53 26° 97° (E) 07:30:51 435.3500 MHz FM
PCSat 25 Apr 08:07:29 08:12:24 34° 58° (ENE) 08:17:16 145.825 MHz
RS-15 25 Apr 08:08:05 08:17:02 27° 318° (NW) 08:25:53 29.354 - 29.394 USB, Beacon 29.352 USB
STRAND 1 25 Apr 08:10:19 08:12:07 12° 268° (W) 08:13:55 ?
PANSAT 25 Apr 08:27:48 08:31:19 33° 188° (S) 08:34:49 not established
KITSAT 1 25 Apr 08:46:35 08:48:32 11° 35° (NE) 08:50:29 435.175 FM
SO-67 25 Apr 08:59:03 09:00:45 13° 290° (WNW) 09:02:26 435.3500 MHz FM
JAS-2 25 Apr 09:01:31 09:05:58 24° 291° (WNW) 09:10:47 435.800 - 435.900 CW/SSB, 435.910 FM
Sapphire 25 Apr 09:06:08 09:11:33 77° 246° (WSW) 09:16:56 437.095 MHz 1200 baud AX-25 AFSK
Saudisat 1A 25 Apr 09:28:02 09:32:29 72° 299° (WNW) 09:36:57 436.775 MHz
HO-68 25 Apr 09:46:28 09:53:37 66° 103° (ESE) 10:00:44 435.675 MHz FM
PCSat 25 Apr 09:51:08 09:55:37 27° 253° (WSW) 10:00:05 145.825 MHz
PANSAT 25 Apr 10:08:37 10:11:04 16° 200° (SSW) 10:13:32 not established
Oscar 11 25 Apr 10:32:13 10:36:36 89° 102° (ESE) 10:40:58 145.825 FM, Beacon 2401.500 USB
KITSAT 1 25 Apr 10:38:13 10:46:04 51° 58° (ENE) 10:53:50 435.175 FM
FUNcube-1 25 Apr 10:41:25 10:45:20 32° 98° (E) 10:49:19 145.950 - 145.970 MHz USB
ISS 25 Apr 11:31:46 11:34:01 17° 128° (SE) 11:36:16 145.800 FM
HO-68 25 Apr 11:35:36 11:40:39 21° 299° (WNW) 11:45:42 435.675 MHz FM
